This demonstration page uses our WeatherBlox Daily Observations layout. Learn more.

Left ArrowRight Arrow

39.92423, -83.80882

Hourly Observations for June 24, 2021

Temp ( °F °C ) Dew Point ( °F °C ) Humidity (%) Winds ( mph kmh ) Pressure ( in mb ) Visibility ( mi km ) Precip ( " mm )
12:56 am 00:56 Clear 60 15.6 54 12.2 80 80 SE 6 9 30.17 1022 10 16 N/A
1:56 am 01:56 Clear 61 16.1 53 11.7 75 75 SSE 7 11 30.18 1022 10 16 N/A
2:56 am 02:56 Clear 59 15 52 11.1 78 78 SE 5 7 30.18 1022 10 16 N/A
3:56 am 03:56 Clear 59 15 52 11.1 78 78 SE 7 11 30.16 1021 10 16 N/A
4:56 am 04:56 Clear 59 15 52 11.1 78 78 SE 8 13 30.16 1021 10 16 N/A
5:56 am 05:56 Clear 57 13.9 52 11.1 83 83 SE 6 9 30.17 1022 10 16 N/A
6:56 am 06:56 Mostly Sunny 60 15.6 53 11.7 78 78 SE 7 11 30.16 1022 10 16 N/A
7:56 am 07:56 Sunny 64 17.8 53 11.7 68 68 SSE 8 13 30.16 1022 10 16 N/A
8:56 am 08:56 Sunny 69 20.6 55 12.8 61 61 SSE 10 17 30.17 1022 10 16 N/A
9:56 am 09:56 Sunny 73 22.8 58 14.4 59 59 SSW 9 15 30.18 1022 10 16 N/A
10:56 am 10:56 Sunny 77 25 60 15.6 56 56 SSW 6 9 30.16 1021 10 16 N/A
11:56 am 11:56 Sunny 79 26.1 59 15 50 50 SSW 13 20 30.16 1021 10 16 N/A
12:56 pm 12:56 Sunny 80 26.7 60 15.6 51 51 S 12 19 30.14 1021 10 16 N/A
1:56 pm 13:56 Sunny 81 27.2 61 16.1 51 51 SSW 14 22 30.12 1020 10 16 N/A
2:56 pm 14:56 Sunny 83 28.3 63 17.2 51 51 SSW 13 20 30.12 1020 10 16 N/A
3:56 pm 15:56 Sunny 83 28.3 65 18.3 55 55 SSW 12 19 30.11 1020 10 16 N/A
4:56 pm 16:56 Mostly Sunny 84 28.9 64 17.8 51 51 SW 15 24 30.10 1019 10 16 N/A
5:56 pm 17:56 Sunny 82 27.8 64 17.8 55 55 SSW 7 11 30.11 1020 10 16 N/A
6:56 pm 18:56 Mostly Sunny 80 26.7 65 18.3 60 60 SW 8 13 30.11 1020 10 16 N/A
7:56 pm 19:56 Sunny 78 25.6 66 18.9 67 67 S 3 6 30.11 1020 10 16 N/A
8:56 pm 20:56 Sunny 76 24.4 66 18.9 72 72 SSE 5 7 30.11 1020 10 16 N/A
9:56 pm 21:56 Mostly Clear 73 22.8 67 19.4 81 81 SSE 6 9 30.12 1020 10 16 N/A
10:56 pm 22:56 Partly Cloudy 72 22.2 66 18.9 82 82 SSE 6 9 30.11 1020 10 16 N/A
11:56 pm 23:56 Clear 71 21.7 66 18.9 84 84 SSE 7 11 30.08 1019 10 16 N/A

Powered by AerisWeather